Vorticity
6 7 9 6 8 9 3 3 4 4 4 4 6 6 5 5 5 6 6 6 8 8 7 7 6 5 6 6 5 7 6 6 7 6 6 6 7 6 4 4 4 3 3 5 5 5 5 5 6 5 4 4 4 5 5 4 5 5 4 3 3 3 2 3 3 4 5 6 7 8 8 7 6 6 7 7 6 5 5 6 7 8 7 5 3 3 4 8 11 10 5 3 4 6 7 6 4
5 6 8 10 10 6 1 1 1 2 4 4 5 5 4 4 5 7 8 7 8 8 6 7 7 7 7 7 7 10 10 6 4 5 6 6 6 7 5 3 4 5 4 4 4 4 4 5 6 6 6 5 5 4 4 4 5 6 5 3 4 6 5 5 6 6 7 8 8 8 7 6 6 6 6 6 6 6 5 7 8 8 6 3 3 4 6 10 11 7 3 4 6 7 7 5 3
3 3 5 12 14 8 4 4 0 0 3 6 6 3 5 5 6 9 10 7 6 5 3 5 6 7 7 5 6 9 9 5 5 5 5 6 6 6 6 4 5 7 6 4 5 4 3 3 5 6 6 5 4 3 2 3 3 4 5 5 6 7 6 6 6 7 9 10 8 7 6 5 6 6 7 7 5 5 5 7 8 8 5 3 3 4 9 11 9 5 3 5 7 7 6 4 3
1 -1 5 12 13 11 6 3 3 7 7 4 4 3 6 5 6 9 9 7 5 5 5 7 6 7 9 6 4 8 8 6 7 7 5 6 7 6 6 6 5 6 7 5 5 4 4 3 4 5 5 4 4 4 3 3 3 4 4 5 7 7 6 7 8 9 10 9 7 6 5 5 6 6 7 7 5 5 6 8 8 6 5 3 3 5 11 11 6 3 4 6 6 6 5 4 3
1 -1 4 10 18 19 4 1 5 10 8 1 2 3 5 6 7 7 5 6 7 7 7 8 6 5 8 6 5 6 8 8 7 8 6 6 8 7 6 6 6 5 6 6 6 6 6 5 4 3 4 5 5 4 3 3 5 5 5 5 6 7 6 6 9 9 8 8 7 6 6 5 6 6 5 5 5 5 6 8 7 6 5 3 4 7 11 10 5 3 4 6 6 6 5 4 3
0 -2 2 7 21 22 3 5 7 7 5 -2 2 3 5 6 7 6 3 5 7 6 5 6 8 7 8 8 6 5 7 8 8 8 7 7 8 7 6 6 5 6 7 6 6 6 5 3 2 2 3 5 5 5 5 4 5 6 5 4 5 7 5 5 7 8 9 7 7 7 6 5 6 7 5 4 5 6 6 7 8 5 4 3 5 9 11 8 4 3 5 6 6 6 5 4 3
-0 -1 3 3 12 20 9 5 6 8 3 -1 4 3 4 5 5 7 4 5 6 6 5 6 8 8 9 10 8 6 8 8 8 8 8 8 8 8 8 8 6 6 6 5 5 5 4 3 2 1 3 5 4 6 7 7 5 5 5 4 5 6 5 5 6 8 9 7 7 6 5 5 5 6 6 5 5 6 6 7 8 5 3 3 6 10 10 6 3 4 5 6 6 5 4 3 3
2 -0 3 3 8 22 14 -0 6 12 4 2 5 3 4 4 4 4 2 4 4 4 5 5 6 7 8 10 8 8 8 7 8 8 8 9 9 10 9 8 8 7 5 5 6 5 4 5 5 4 4 5 6 7 7 9 7 5 6 5 5 5 5 5 7 7 7 6 6 6 4 5 5 4 5 6 6 5 6 7 7 5 3 3 6 10 9 5 3 4 6 6 6 4 4 3 3
2 -2 1 5 8 25 18 -1 3 5 3 5 4 4 4 3 5 4 4 7 5 4 6 6 7 7 6 7 8 8 9 7 6 7 8 10 10 9 7 8 8 7 6 8 7 6 5 6 7 5 4 4 5 8 7 7 8 7 6 5 5 6 5 4 5 6 7 6 4 5 6 5 5 5 5 6 6 6 6 7 7 5 4 4 7 9 8 5 3 4 6 6 5 4 4 3 3
3 -4 2 5 5 28 20 -2 2 1 2 6 4 5 4 4 5 5 5 7 6 5 6 7 7 7 5 6 7 7 9 9 8 8 9 9 8 8 7 7 8 7 6 8 8 7 7 7 7 5 4 4 3 6 7 5 6 8 7 4 5 7 6 4 5 5 6 7 5 4 6 6 5 6 7 6 6 7 7 8 7 4 3 5 8 9 7 5 4 4 6 6 6 4 3 3 3
4 -3 6 1 1 34 29 8 10 4 1 4 7 6 4 5 4 4 4 4 4 4 6 6 5 5 5 6 7 6 6 8 9 10 9 8 6 8 8 6 7 7 6 6 8 8 9 9 9 8 6 6 5 4 4 4 4 4 5 5 4 6 6 5 5 4 4 5 6 4 4 6 5 6 8 6 6 7 8 9 6 3 4 6 9 9 6 4 4 4 6 7 5 4 3 3 3
4 5 11 2 5 40 37 16 7 0 4 7 7 5 5 6 4 5 4 5 4 4 5 4 3 4 6 6 6 7 4 6 7 10 10 7 6 7 7 7 6 6 6 5 7 7 8 8 8 10 9 9 9 7 6 3 3 3 4 5 4 5 5 5 5 4 5 5 5 5 4 4 6 6 7 7 7 7 8 8 6 3 4 7 9 8 6 4 4 5 6 7 6 4 3 3 4
8 3 9 14 26 49 31 6 2 7 11 7 7 4 5 7 5 5 4 4 3 6 6 3 3 4 8 5 5 7 6 7 6 9 10 7 6 6 7 7 6 6 7 6 7 7 6 6 6 8 8 9 10 9 9 7 6 5 4 4 4 5 4 5 5 4 6 6 4 5 5 4 6 7 7 7 6 7 8 7 5 3 4 7 9 7 6 4 4 5 6 7 6 5 4 4 4
13 1 12 31 38 44 21 1 6 12 5 -0 8 5 3 8 6 6 5 4 5 7 4 4 3 4 8 3 5 9 7 9 7 6 8 8 7 5 6 6 6 5 6 7 7 7 6 4 4 7 5 4 7 8 8 9 9 8 7 6 4 5 5 5 6 6 6 7 5 5 5 5 6 7 7 7 6 7 8 7 5 3 4 6 8 7 6 4 4 5 6 7 7 6 5 5 4
7 2 20 42 38 29 8 1 4 0 -1 0 6 1 3 9 5 7 6 4 6 4 2 6 4 3 8 2 5 9 7 9 8 6 6 7 6 5 7 6 7 6 7 8 7 8 6 4 3 3 5 4 5 7 7 8 9 8 9 8 7 6 5 4 5 7 8 6 5 6 6 5 6 6 7 7 7 8 9 7 4 4 4 6 8 7 6 4 4 5 7 8 7 6 5 5 4
0 6 28 43 30 16 1 3 3 -5 5 6 1 -0 4 8 5 7 5 3 4 2 2 7 6 4 8 7 6 7 8 9 8 7 5 7 5 6 9 6 7 8 9 10 11 10 6 11 13 7 7 11 8 7 6 6 7 8 8 8 8 7 6 4 3 6 7 4 5 7 7 6 5 6 7 8 8 9 9 7 4 4 4 6 8 7 6 4 5 5 7 8 7 6 5 5 5
1 8 29 37 13 4 4 5 -0 -2 9 5 -0 4 5 7 7 6 4 4 4 3 4 6 7 6 7 8 7 6 8 8 8 6 5 6 4 5 9 7 7 9 9 11 12 10 6 9 14 11 9 13 12 11 11 8 6 6 7 8 7 7 7 6 5 5 5 5 4 6 6 5 5 6 7 8 9 9 8 7 4 3 5 6 8 7 6 5 5 6 7 8 7 6 6 6 6
3 1 14 26 11 4 10 8 -1 3 11 5 3 6 4 7 8 5 6 6 4 5 7 9 8 6 7 7 5 7 8 7 7 6 6 6 3 4 9 8 8 10 9 10 10 9 12 9 8 12 10 10 9 10 15 14 9 6 7 8 8 8 8 8 7 5 6 6 3 6 8 5 5 5 7 9 10 9 8 8 4 3 5 6 8 7 6 6 5 6 7 8 6 6 6 6 6
2 -0 1 8 15 14 10 7 2 7 15 8 5 5 2 7 7 5 8 7 6 7 6 7 5 4 7 7 5 6 7 7 8 7 6 6 4 5 10 10 8 8 8 9 11 10 12 9 8 12 10 9 8 7 10 12 12 11 9 8 8 8 9 8 8 7 6 7 5 8 7 5 5 4 6 9 10 10 9 6 3 3 5 7 8 7 7 6 5 6 7 7 6 6 7 6 5
-0 2 0 -3 14 21 13 9 4 4 12 8 4 4 2 4 4 3 6 6 6 6 4 4 2 2 6 7 6 6 6 8 9 8 6 5 5 7 12 11 6 7 7 8 10 10 9 9 10 11 9 8 9 9 8 9 11 12 12 10 9 8 8 7 7 9 7 7 7 7 8 6 6 4 5 8 9 10 8 5 3 4 5 7 7 7 7 5 6 6 7 8 6 6 6 6 6
3 1 0 -0 9 14 10 11 10 5 9 11 5 4 3 2 1 3 5 4 3 4 6 6 3 3 6 6 5 6 6 7 8 8 7 5 6 10 11 9 7 7 7 8 8 7 8 8 9 9 9 8 9 11 10 10 10 11 12 11 11 9 7 7 6 8 8 7 6 7 10 9 10 9 6 6 9 9 8 5 3 4 5 7 8 8 7 6 7 6 8 8 7 6 5 4 4
4 1 1 3 5 6 2 2 9 12 12 12 8 4 5 4 1 4 6 2 0 3 5 7 7 5 5 6 6 7 6 7 9 8 7 5 8 11 8 6 7 7 8 8 7 6 7 8 9 9 9 9 10 10 10 11 11 12 12 11 13 12 8 8 7 8 10 8 7 8 7 6 12 14 8 6 9 11 10 5 3 4 5 7 8 8 7 6 7 7 8 8 7 7 4 3 5
1 3 3 2 3 4 3 -1 1 8 12 11 10 7 6 8 4 2 3 1 1 2 3 7 8 6 6 6 6 9 7 9 9 7 7 5 8 9 6 7 6 7 9 9 8 7 8 9 10 10 10 10 10 10 11 12 11 10 10 11 15 14 10 9 8 8 10 10 10 9 4 2 7 12 10 6 10 15 12 4 2 4 5 8 7 7 7 6 7 7 7 6 6 5 4 7 6
4 3 3 2 3 3 5 7 -1 1 11 11 12 12 7 13 13 8 7 4 4 2 0 8 8 4 8 7 6 8 5 9 8 7 8 5 7 7 7 8 5 8 9 8 9 8 8 9 10 11 10 11 10 10 10 11 12 10 9 12 16 16 13 11 9 8 11 11 9 7 7 8 8 12 11 6 13 16 8 2 3 4 6 8 8 7 6 6 7 6 6 8 8 6 5 7 4
8 1 3 3 1 3 3 7 3 0 7 5 5 7 3 8 9 6 10 9 11 9 3 7 6 2 8 8 6 6 6 10 8 7 7 4 6 7 7 5 6 10 8 6 8 9 9 8 11 11 9 9 9 11 10 11 12 10 10 12 17 17 13 13 9 9 12 11 8 7 9 13 12 16 12 7 14 13 3 1 3 5 7 8 7 7 6 5 5 5 6 8 7 5 3 4 4
9 3 6 4 2 6 2 6 9 5 7 4 2 6 4 4 2 2 8 9 11 15 10 9 5 0 7 9 6 4 7 10 6 6 7 3 5 7 8 6 7 11 9 7 8 9 10 8 10 11 11 9 9 12 11 12 12 10 12 13 15 13 9 10 8 10 14 10 10 12 12 14 15 17 11 9 15 10 2 1 4 6 6 7 8 6 6 5 5 5 7 7 5 4 4 4 4
9 3 1 3 5 5 3 6 6 5 11 9 2 5 5 2 2 2 5 7 7 12 14 11 6 2 7 9 6 4 5 8 4 5 8 5 4 6 8 7 7 9 8 8 8 9 9 9 11 11 13 11 9 12 11 13 14 12 13 12 13 11 9 10 9 12 14 12 13 13 14 14 15 14 8 11 16 7 0 3 5 6 5 6 8 7 7 6 4 5 7 9 5 4 5 3 2
5 2 -0 6 9 4 5 5 3 5 9 8 4 4 4 2 4 4 3 5 4 8 10 11 11 4 7 8 4 4 5 7 5 5 9 5 4 4 6 8 7 8 8 7 9 10 10 10 11 11 13 12 11 12 13 15 15 13 11 10 11 10 11 9 8 11 12 14 14 13 13 13 12 10 10 15 14 3 1 6 5 5 7 7 8 6 7 7 5 5 6 9 7 4 5 4 4
3 5 1 2 5 2 4 4 5 10 10 8 9 8 6 4 5 5 6 6 6 10 6 15 24 8 6 9 3 5 6 5 6 8 9 4 4 5 4 8 8 9 10 8 9 10 10 10 9 11 14 12 11 11 14 13 13 13 9 8 10 9 10 7 8 10 11 14 11 9 12 11 12 12 14 14 7 2 4 7 5 6 8 7 8 7 6 7 5 4 5 7 6 5 7 6 5
4 5 0 -0 6 6 6 8 5 6 8 7 10 12 11 7 5 4 3 1 5 14 9 13 21 2 1 9 4 7 4 3 7 8 8 5 6 6 4 8 6 9 11 8 9 10 9 10 9 11 14 13 13 12 14 12 11 12 7 7 10 11 10 9 13 12 14 15 2 6 15 13 15 15 13 9 1 3 5 6 6 6 8 7 8 7 6 7 5 5 5 5 4 5 6 6 5
7 5 6 3 3 4 5 8 5 2 4 6 7 9 11 8 8 8 6 -0 -4 8 16 17 15 6 9 11 6 7 3 2 6 7 6 5 7 6 4 7 7 8 10 8 9 9 9 9 9 10 12 13 13 13 14 12 12 12 8 8 10 12 10 10 17 17 20 14 -3 10 23 16 17 14 8 5 1 3 3 4 4 4 8 7 8 7 6 9 9 5 4 5 5 5 5 6 7
10 3 8 7 -1 1 4 3 4 5 6 7 7 10 15 11 8 10 10 7 -2 1 15 17 11 14 17 10 5 6 4 4 5 6 7 5 7 7 3 5 9 9 9 9 9 9 9 10 10 10 12 14 13 13 14 13 13 12 10 10 10 11 10 10 14 16 16 9 1 17 23 14 14 9 4 3 3 5 4 4 5 5 7 6 7 7 7 10 9 5 3 6 6 5 7 9 8
14 0 3 9 1 0 4 3 3 6 7 7 5 7 14 11 8 11 10 8 3 1 8 9 4 12 19 10 5 7 6 5 4 6 7 6 7 6 3 6 11 11 8 8 9 8 9 10 10 11 12 12 13 15 16 13 12 13 12 11 10 11 12 9 11 13 10 7 11 20 17 11 9 4 3 3 3 5 3 4 6 5 5 6 7 7 8 9 7 5 4 6 6 6 9 8 8
6 2 1 9 7 3 7 7 5 3 6 9 5 2 8 11 11 12 11 8 5 3 5 8 4 9 20 12 2 6 8 4 3 6 6 7 7 4 4 7 9 11 8 8 8 8 9 10 10 11 11 12 15 16 14 12 13 14 13 11 10 11 12 11 13 16 14 13 17 17 11 7 4 2 3 3 4 5 4 5 6 5 6 7 6 6 8 7 6 6 5 7 7 7 9 8 8
-8 8 6 5 7 4 4 3 4 5 3 6 6 2 3 8 10 9 11 9 5 5 5 9 5 6 20 17 2 4 8 4 4 6 5 6 7 4 4 6 7 10 9 8 8 8 10 10 9 11 10 10 15 15 11 13 15 12 9 11 13 11 11 14 16 18 18 16 15 11 7 4 3 3 4 4 6 7 6 7 7 6 6 6 6 5 6 6 5 6 6 9 9 8 9 8 8
-5 11 7 -0 6 7 7 3 4 10 5 5 8 3 1 3 6 8 11 12 6 6 5 6 7 8 22 25 8 2 7 6 4 6 5 5 6 6 5 6 8 10 9 8 8 8 9 10 10 11 12 10 13 14 12 13 14 9 6 11 15 13 10 11 11 12 12 11 9 6 4 3 3 3 6 6 6 7 7 8 8 6 6 6 6 6 6 7 6 7 8 9 10 9 9 10 8
4 10 7 -0 -0 -5 -2 0 2 10 8 9 9 3 3 4 4 5 6 10 7 7 6 3 9 12 18 26 13 2 7 6 4 6 6 5 5 5 5 5 7 9 9 8 8 8 9 10 9 11 14 13 11 12 14 13 13 10 6 10 13 12 11 10 9 8 6 6 5 4 3 4 5 4 4 6 6 8 7 7 7 6 7 7 7 7 7 8 8 8 9 9 9 9 10 11 8
13 13 14 10 8 -4 -8 -3 -1 8 10 10 11 5 8 6 3 5 5 7 6 9 8 1 8 13 17 27 15 1 5 6 4 7 6 5 5 4 5 5 7 10 9 8 8 8 9 9 9 10 13 13 11 12 13 12 11 10 8 9 10 9 9 9 10 9 7 6 5 5 5 5 6 5 3 4 6 7 7 8 6 5 6 6 7 8 7 8 9 8 9 9 8 8 10 9 7
16 20 21 16 24 19 7 2 -2 7 11 7 8 6 9 9 5 6 5 6 7 8 9 4 3 8 22 34 13 -4 5 5 3 7 6 6 5 4 5 4 6 9 9 8 8 9 9 9 8 8 10 11 12 12 10 9 8 10 10 9 7 6 7 7 7 8 7 6 6 6 6 6 6 6 5 5 5 6 7 7 6 6 7 8 8 7 7 8 8 9 10 9 8 8 10 11 9
13 22 23 8 13 19 14 9 0 8 16 8 9 7 2 2 5 8 5 4 8 9 8 8 4 2 20 36 14 -4 3 6 5 7 7 6 5 4 4 5 6 8 9 8 7 8 9 8 8 7 8 8 10 11 9 7 7 9 11 11 8 6 7 7 6 7 7 6 7 6 6 6 6 6 6 6 5 7 8 7 7 8 9 10 10 8 8 9 10 9 9 9 9 9 9 9 8
13 17 24 11 7 8 3 6 0 0 10 7 8 10 4 -1 2 8 9 4 6 11 9 7 8 2 11 32 24 0 -2 5 7 6 6 7 7 4 4 6 6 7 9 9 7 8 9 8 7 7 7 6 7 8 7 5 6 7 6 7 6 5 6 6 5 5 6 5 5 5 6 6 6 7 7 7 8 8 7 9 9 9 10 10 10 10 9 9 10 9 9 10 11 11 9 9 9
5 -1 9 10 15 16 5 10 13 7 12 14 9 12 13 10 6 7 9 7 7 14 15 9 8 6 8 26 26 4 -2 5 6 6 7 7 7 4 4 7 5 5 9 9 7 7 9 9 7 6 6 7 6 6 6 5 5 5 4 4 4 4 4 4 5 5 5 5 5 5 6 5 7 8 8 8 9 8 8 9 10 9 10 10 10 12 11 10 8 8 10 9 11 12 10 9 9
3 -1 3 -1 6 15 8 11 15 6 7 10 6 7 9 9 9 8 8 7 6 7 12 12 10 7 8 19 22 9 4 6 4 6 8 6 6 4 3 6 5 5 8 9 9 6 8 9 7 7 6 6 6 6 7 6 5 5 4 4 4 4 5 4 5 6 5 5 5 7 7 6 7 8 7 8 9 9 8 8 9 9 9 10 9 10 11 10 9 9 10 9 11 12 8 8 7
2 -2 4 3 -1 -8 -14 -6 1 0 4 8 6 7 7 7 7 7 9 9 5 1 -1 6 12 9 6 14 24 17 7 5 3 5 8 6 6 4 3 5 6 6 6 9 10 7 7 8 7 7 5 6 6 5 6 6 6 6 4 5 5 4 5 4 5 6 6 5 5 8 9 7 7 8 7 7 8 9 9 8 8 9 9 9 9 9 9 9 9 10 8 8 9 9 9 9 7
4 -8 -6 9 15 -0 -10 -4 1 7 11 5 3 9 12 17 15 5 8 11 7 7 4 2 8 12 7 9 24 27 11 1 1 6 10 6 3 4 5 5 5 6 5 8 10 9 7 7 7 6 5 6 5 5 6 5 5 5 5 5 5 5 5 4 5 6 6 6 7 9 10 8 6 7 8 8 9 8 7 8 7 8 8 7 8 10 9 8 9 9 7 7 7 9 10 8 8
12 7 -5 -1 11 11 12 16 13 14 18 8 3 10 7 13 23 8 -4 1 2 6 10 7 5 8 10 7 15 27 18 2 -1 7 11 7 3 4 5 4 5 6 6 6 9 10 8 6 6 6 5 6 5 5 5 5 5 4 4 4 4 5 5 5 6 7 6 6 8 9 9 9 7 8 8 7 7 7 6 7 7 7 7 7 8 9 10 10 8 7 6 6 8 10 8 6 10
14 19 16 17 17 18 20 23 23 22 26 23 17 23 19 14 26 18 -5 -5 1 4 9 11 9 6 9 10 6 13 17 10 6 8 10 10 5 3 4 4 4 6 6 6 8 10 9 6 6 5 5 5 4 5 4 4 4 3 3 4 4 6 6 6 6 6 7 6 7 9 8 8 9 8 8 8 7 6 7 6 6 7 6 7 8 8 9 9 7 6 6 6 7 8 6 6 10
17 18 16 19 16 19 16 5 17 23 18 16 8 10 21 18 19 22 12 2 -1 2 7 10 13 10 10 13 9 6 9 13 15 12 9 10 7 5 5 4 5 6 5 5 8 10 10 7 6 5 5 5 4 4 3 4 4 4 4 4 5 7 6 6 6 6 7 6 7 9 9 10 11 9 8 9 9 7 7 7 6 7 7 7 6 7 9 8 7 6 7 7 6 6 6 6 7
22 16 4 12 9 14 19 4 9 16 5 11 12 -1 2 7 5 12 18 14 4 3 6 4 6 9 10 12 11 8 6 9 18 18 9 8 8 6 5 4 4 5 5 6 6 9 10 7 6 5 4 5 5 3 3 4 4 5 6 6 6 6 6 5 5 5 6 7 8 8 10 11 11 11 10 10 10 9 9 9 8 8 8 8 7 8 9 8 8 7 7 8 6 6 7 6 6
9 -5 -5 24 25 7 6 3 2 5 -3 4 18 11 4 6 6 7 10 12 10 5 4 5 5 5 7 8 7 8 8 6 14 20 12 6 8 8 5 5 4 3 6 6 4 7 10 8 7 6 5 5 5 4 3 4 5 5 6 7 6 5 4 4 4 5 5 7 9 9 9 11 11 11 12 11 11 10 10 11 11 11 10 10 9 9 10 9 8 8 8 8 7 7 6 7 9
5 -3 -0 14 25 16 5 4 4 3 -2 -5 4 12 13 12 8 9 13 12 12 9 4 5 8 7 8 9 7 6 8 7 8 18 18 7 4 8 7 6 5 3 5 4 3 7 8 8 9 8 5 5 4 4 4 3 4 4 5 5 5 4 3 4 3 4 6 6 7 9 9 10 11 10 11 12 12 11 11 11 10 11 11 11 11 11 11 11 9 9 10 10 10 10 9 9 9
11 15 16 -4 2 14 8 10 12 3 -4 -3 6 13 16 14 1 -1 11 10 10 16 12 6 6 7 9 11 10 6 8 10 6 14 26 13 2 8 9 7 5 3 6 5 3 7 8 6 8 9 8 6 4 4 4 4 4 4 5 4 4 4 3 4 4 3 5 6 6 7 9 9 10 9 9 9 10 10 9 9 8 9 9 9 8 8 8 9 9 8 9 9 8 8 9 8 7
-3 0 16 10 10 17 12 14 20 12 -5 -9 6 13 11 11 4 3 12 8 6 13 10 9 9 7 6 5 6 3 3 9 6 10 28 21 5 8 10 6 6 4 9 9 3 6 9 6 6 8 9 7 5 6 4 4 4 3 4 4 3 4 4 3 4 4 4 5 6 6 7 8 8 8 8 7 7 8 7 6 6 6 6 5 5 5 4 4 5 6 6 7 6 5 5 6 5
-2 -2 3 6 6 10 14 15 22 22 3 -12 -2 6 5 10 8 6 11 8 11 16 12 10 8 6 10 6 4 7 4 6 8 8 25 26 6 4 9 8 7 4 7 10 6 5 7 5 5 7 9 8 6 6 5 4 5 4 4 4 3 3 4 4 4 4 4 4 5 7 6 7 8 7 7 6 6 6 5 5 4 3 3 3 3 3 4 4 4 4 4 4 6 7 6 6 6
20 16 4 5 10 13 14 13 16 21 18 13 9 -3 1 16 12 5 11 8 7 14 14 16 10 4 11 7 3 16 13 7 11 9 19 30 12 0 7 10 7 4 6 9 7 6 6 5 6 6 7 9 8 6 6 5 5 4 3 3 4 3 3 4 4 3 4 3 4 6 7 7 8 7 6 6 6 5 5 5 4 3 3 3 4 5 5 6 6 6 7 6 7 8 7 7 7
17 8 -6 1 10 5 1 3 7 10 17 27 18 -3 -6 4 -0 0 13 12 12 18 13 13 15 8 10 5 -1 17 21 8 14 18 18 23 10 -6 1 10 8 5 6 7 6 7 8 5 5 7 6 7 8 8 7 7 6 6 4 3 2 3 4 4 4 3 3 4 4 5 6 7 7 8 7 6 6 5 5 5 3 4 4 4 5 6 6 7 7 8 8 8 9 9 8 7 7
-2 -3 -9 -8 -8 -12 -7 4 11 13 14 20 20 9 2 -1 -6 -2 4 -2 7 26 21 15 20 14 11 9 -0 11 23 14 15 24 21 18 8 -6 -2 8 10 8 7 7 7 7 9 8 5 5 5 6 8 7 6 7 6 6 6 5 4 3 4 3 4 4 3 3 4 5 6 7 6 7 7 7 6 6 5 5 4 4 4 5 6 7 7 6 7 8 7 7 8 9 9 8 7
3 3 4 8 4 2 8 10 9 11 10 14 19 14 8 5 3 9 12 -1 -7 9 16 13 18 18 13 13 8 5 14 17 18 23 21 15 12 5 2 4 5 6 8 8 9 7 6 7 7 6 6 6 7 7 7 7 7 6 6 6 6 5 5 5 4 4 4 4 4 6 6 6 6 6 6 7 7 7 7 6 5 5 4 6 6 7 7 7 7 8 8 7 7 8 10 8 8
Height
5894 5895 5895 5895 5895 5895 5895 5895 5894 5895 5895 5894 5894 5893 5893 5893 5893 5893 5893 5893 5892 5892 5892 5892 5891 5891 5891 5891 5892 5892 5892 5892 5892 5892 5891 5892 5892 5892 5892 5892 5893 5893 5894 5894 5895 5896 5896 5897 5897 5898 5898 5899 5900 5901 5901 5902 5903 5903 5904 5905 5906 5906 5907 5908 5909 5910 5910 5910 5911 5911 5911 5912 5913 5914 5915 5915 5915 5914 5914 5915 5914 5914 5914 5913 5913 5913 5912 5912 5913 5913 5913 5914 5914 5914 5915 5915 5915
5894 5895 5895 5895 5895 5895 5895 5895 5895 5896 5896 5895 5894 5894 5894 5894 5894 5894 5894 5894 5893 5893 5893 5892 5892 5892 5891 5891 5892 5892 5892 5892 5892 5892 5892 5893 5894 5894 5893 5893 5894 5894 5894 5895 5896 5896 5897 5898 5898 5898 5899 5900 5900 5901 5902 5903 5903 5904 5905 5905 5906 5907 5908 5908 5909 5910 5910 5911 5911 5911 5912 5913 5913 5914 5915 5915 5915 5914 5914 5915 5915 5915 5914 5914 5913 5913 5913 5913 5913 5914 5914 5914 5915 5915 5915 5915 5915
5895 5895 5895 5895 5895 5895 5895 5896 5896 5896 5896 5896 5895 5895 5895 5895 5895 5895 5895 5895 5894 5894 5894 5893 5893 5893 5892 5892 5892 5893 5893 5893 5893 5892 5893 5894 5894 5894 5894 5894 5894 5895 5895 5895 5896 5897 5898 5898 5899 5899 5900 5900 5901 5902 5903 5904 5904 5905 5906 5906 5907 5908 5908 5909 5909 5910 5910 5911 5911 5912 5912 5912 5913 5914 5915 5915 5915 5914 5914 5915 5915 5915 5915 5914 5914 5914 5914 5914 5914 5915 5915 5915 5915 5915 5916 5916 5916
5895 5895 5895 5895 5895 5895 5895 5895 5896 5897 5897 5895 5895 5895 5896 5896 5896 5896 5896 5895 5895 5895 5894 5894 5894 5894 5894 5893 5893 5893 5893 5894 5894 5893 5894 5895 5895 5895 5895 5895 5895 5896 5896 5896 5897 5898 5898 5899 5899 5900 5901 5902 5902 5903 5904 5904 5905 5906 5907 5907 5908 5909 5909 5909 5909 5910 5910 5911 5911 5912 5912 5912 5913 5914 5915 5915 5915 5915 5915 5915 5915 5915 5915 5915 5914 5914 5914 5915 5915 5916 5916 5916 5916 5916 5916 5916 5917
5895 5895 5895 5895 5895 5895 5895 5895 5896 5897 5896 5895 5895 5896 5896 5896 5897 5897 5897 5896 5896 5895 5895 5895 5895 5895 5894 5894 5893 5893 5894 5894 5894 5894 5894 5895 5895 5895 5896 5896 5896 5897 5897 5897 5898 5898 5899 5899 5900 5901 5902 5903 5904 5904 5905 5905 5906 5907 5907 5908 5908 5909 5909 5909 5910 5910 5910 5911 5912 5912 5912 5913 5914 5915 5915 5915 5915 5916 5916 5915 5915 5915 5915 5915 5915 5915 5915 5916 5916 5917 5918 5918 5917 5917 5917 5917 5918
5895 5895 5895 5895 5895 5896 5896 5896 5897 5897 5896 5895 5895 5896 5897 5897 5897 5897 5897 5897 5896 5896 5895 5895 5895 5895 5895 5894 5894 5893 5894 5894 5895 5895 5895 5896 5896 5896 5896 5897 5897 5897 5898 5899 5899 5899 5900 5900 5901 5902 5903 5904 5904 5905 5905 5906 5907 5907 5908 5908 5908 5909 5909 5910 5910 5910 5910 5911 5912 5913 5913 5913 5914 5915 5915 5915 5916 5916 5916 5915 5916 5916 5916 5915 5915 5915 5916 5916 5917 5918 5919 5919 5919 5919 5919 5919 5919
5895 5895 5895 5895 5896 5896 5896 5896 5896 5896 5896 5896 5895 5896 5897 5897 5898 5898 5898 5897 5897 5896 5896 5896 5896 5896 5896 5895 5895 5894 5894 5895 5895 5896 5896 5897 5897 5896 5897 5897 5897 5898 5899 5899 5900 5900 5900 5900 5901 5902 5903 5904 5904 5905 5905 5906 5907 5907 5908 5908 5909 5909 5910 5910 5910 5910 5910 5911 5912 5912 5912 5913 5914 5915 5915 5916 5916 5916 5916 5916 5916 5916 5916 5916 5916 5916 5916 5917 5918 5919 5919 5920 5920 5920 5920 5920 5920
5895 5895 5894 5895 5895 5895 5896 5896 5896 5896 5896 5897 5896 5896 5898 5898 5898 5898 5898 5898 5897 5897 5897 5897 5896 5895 5895 5896 5896 5895 5895 5895 5896 5896 5897 5897 5897 5897 5897 5897 5897 5898 5899 5899 5900 5900 5900 5901 5902 5902 5903 5904 5904 5905 5906 5906 5907 5907 5908 5909 5909 5909 5909 5910 5910 5910 5910 5911 5911 5912 5912 5913 5915 5915 5916 5916 5916 5916 5916 5916 5916 5916 5917 5916 5916 5917 5917 5917 5918 5919 5920 5920 5920 5920 5920 5921 5921
5895 5894 5894 5894 5894 5894 5895 5895 5895 5896 5896 5897 5897 5897 5898 5898 5898 5899 5899 5899 5898 5897 5897 5897 5896 5896 5895 5896 5896 5895 5896 5896 5896 5897 5898 5898 5898 5897 5897 5897 5898 5898 5899 5900 5900 5900 5900 5901 5902 5902 5903 5903 5904 5904 5905 5906 5907 5907 5908 5908 5908 5909 5909 5910 5910 5910 5911 5911 5911 5911 5912 5914 5915 5916 5916 5917 5917 5916 5917 5917 5917 5917 5917 5917 5916 5917 5917 5918 5918 5919 5920 5921 5921 5921 5921 5921 5922
5894 5894 5893 5893 5893 5893 5893 5894 5895 5895 5896 5896 5897 5897 5898 5898 5899 5899 5899 5899 5898 5898 5898 5897 5897 5896 5896 5896 5896 5896 5896 5897 5897 5898 5899 5899 5898 5898 5897 5898 5898 5898 5899 5899 5900 5900 5900 5901 5902 5902 5902 5903 5903 5904 5904 5905 5906 5907 5907 5908 5908 5908 5909 5910 5910 5911 5911 5911 5911 5912 5913 5914 5915 5916 5917 5917 5917 5917 5917 5917 5917 5917 5917 5917 5917 5917 5917 5918 5919 5920 5920 5921 5921 5921 5921 5922 5923
5893 5893 5893 5892 5892 5891 5892 5893 5894 5895 5896 5897 5896 5897 5898 5898 5899 5899 5900 5900 5899 5899 5898 5898 5897 5897 5896 5896 5896 5896 5897 5898 5898 5898 5899 5899 5899 5898 5898 5898 5898 5898 5898 5899 5899 5900 5900 5901 5901 5902 5902 5902 5903 5903 5904 5905 5905 5906 5907 5907 5908 5908 5909 5910 5910 5911 5911 5911 5911 5912 5913 5914 5915 5917 5918 5918 5918 5917 5917 5917 5917 5917 5917 5917 5917 5917 5917 5918 5919 5920 5921 5921 5921 5921 5922 5923 5924
5893 5892 5891 5891 5890 5890 5891 5893 5894 5895 5896 5898 5897 5897 5898 5899 5899 5900 5900 5900 5900 5899 5899 5899 5898 5898 5897 5897 5896 5895 5896 5898 5898 5899 5899 5899 5899 5899 5899 5899 5899 5899 5899 5899 5900 5900 5900 5901 5901 5902 5902 5902 5903 5903 5904 5904 5905 5906 5906 5907 5907 5908 5909 5909 5910 5910 5910 5911 5911 5912 5914 5915 5916 5918 5919 5919 5918 5917 5917 5917 5917 5917 5917 5917 5917 5917 5918 5918 5919 5920 5921 5921 5921 5922 5922 5924 5924
5892 5891 5890 5889 5888 5888 5890 5892 5894 5895 5895 5898 5899 5897 5898 5899 5900 5900 5900 5900 5900 5900 5899 5899 5899 5898 5898 5897 5896 5896 5896 5899 5899 5899 5899 5898 5898 5899 5899 5900 5900 5900 5900 5900 5900 5900 5900 5901 5901 5901 5902 5902 5903 5903 5904 5904 5905 5905 5906 5907 5907 5907 5908 5908 5909 5910 5911 5911 5911 5913 5914 5916 5917 5918 5919 5919 5918 5917 5917 5917 5918 5918 5918 5918 5917 5918 5918 5919 5920 5921 5921 5922 5922 5922 5923 5924 5925
5892 5891 5889 5887 5886 5887 5890 5892 5894 5895 5895 5897 5899 5898 5897 5900 5900 5901 5901 5901 5901 5900 5900 5899 5899 5899 5898 5898 5897 5897 5897 5899 5900 5899 5899 5898 5898 5899 5900 5900 5900 5900 5900 5900 5900 5900 5901 5900 5900 5900 5901 5901 5902 5903 5903 5904 5904 5905 5905 5906 5907 5907 5908 5908 5909 5910 5911 5912 5912 5913 5914 5916 5917 5919 5919 5919 5918 5918 5918 5918 5918 5918 5918 5918 5918 5918 5919 5919 5920 5921 5922 5923 5923 5924 5924 5925 5926
5892 5891 5888 5887 5886 5888 5891 5892 5894 5895 5896 5898 5899 5898 5898 5900 5901 5901 5902 5902 5902 5901 5901 5900 5900 5899 5899 5899 5898 5898 5898 5899 5901 5900 5899 5899 5899 5900 5900 5901 5901 5901 5901 5901 5901 5901 5901 5901 5900 5900 5900 5900 5901 5901 5902 5903 5903 5904 5905 5906 5906 5907 5907 5908 5909 5910 5911 5912 5912 5913 5914 5916 5917 5919 5919 5918 5918 5918 5918 5918 5918 5919 5918 5918 5918 5919 5919 5920 5921 5922 5923 5923 5924 5925 5925 5926 5926
5892 5891 5890 5888 5888 5890 5892 5893 5895 5896 5897 5899 5899 5899 5899 5900 5901 5902 5902 5902 5902 5902 5901 5901 5901 5900 5899 5899 5899 5898 5898 5899 5901 5900 5899 5899 5899 5900 5901 5900 5900 5900 5901 5901 5901 5901 5901 5901 5900 5900 5900 5900 5900 5900 5901 5902 5903 5903 5904 5905 5905 5906 5907 5908 5909 5910 5911 5911 5911 5913 5914 5916 5917 5918 5919 5918 5918 5918 5919 5919 5919 5919 5919 5919 5919 5920 5920 5921 5921 5922 5923 5924 5925 5926 5926 5927 5927
5892 5892 5892 5891 5891 5892 5893 5894 5895 5897 5898 5899 5899 5899 5900 5901 5902 5902 5903 5903 5903 5902 5902 5902 5901 5900 5899 5899 5899 5899 5899 5899 5900 5901 5901 5900 5898 5899 5901 5900 5900 5900 5900 5901 5901 5901 5901 5901 5900 5900 5900 5900 5900 5900 5901 5902 5902 5903 5903 5904 5905 5906 5907 5907 5908 5909 5910 5911 5912 5913 5914 5915 5917 5918 5919 5919 5919 5919 5919 5919 5919 5919 5920 5920 5920 5920 5921 5922 5922 5923 5924 5925 5926 5926 5927 5927 5928
5893 5894 5893 5893 5893 5894 5895 5895 5896 5897 5898 5899 5899 5900 5901 5902 5902 5903 5903 5903 5903 5903 5902 5902 5902 5901 5900 5900 5899 5899 5900 5900 5900 5900 5901 5902 5899 5899 5900 5900 5900 5900 5900 5900 5901 5901 5901 5900 5900 5900 5900 5900 5900 5900 5901 5901 5902 5902 5903 5904 5904 5905 5906 5907 5907 5908 5910 5911 5912 5913 5914 5915 5916 5917 5918 5919 5920 5920 5920 5920 5920 5920 5920 5920 5921 5921 5922 5922 5923 5923 5924 5925 5926 5927 5928 5928 5929
5894 5894 5894 5894 5895 5895 5895 5896 5896 5898 5899 5899 5900 5901 5902 5902 5903 5903 5903 5904 5903 5903 5902 5902 5902 5901 5901 5901 5900 5900 5900 5900 5900 5900 5900 5901 5901 5900 5900 5900 5900 5900 5900 5900 5900 5900 5900 5900 5900 5900 5900 5900 5900 5900 5901 5901 5902 5902 5902 5903 5904 5905 5906 5906 5907 5908 5909 5910 5911 5912 5913 5914 5915 5916 5917 5918 5919 5920 5920 5920 5920 5921 5921 5921 5921 5922 5923 5923 5924 5924 5925 5927 5928 5928 5929 5929 5929
5895 5894 5894 5895 5896 5895 5896 5896 5897 5898 5899 5900 5901 5901 5902 5903 5903 5903 5904 5904 5904 5903 5903 5903 5902 5902 5902 5901 5901 5901 5901 5901 5901 5900 5900 5900 5900 5900 5900 5900 5900 5900 5900 5900 5900 5900 5900 5900 5899 5899 5899 5899 5900 5900 5901 5902 5902 5902 5902 5903 5904 5904 5905 5906 5906 5907 5908 5909 5910 5911 5913 5914 5914 5915 5916 5917 5919 5920 5920 5921 5921 5922 5921 5922 5922 5923 5924 5924 5925 5925 5926 5928 5929 5929 5929 5930 5931
5894 5893 5895 5896 5897 5897 5897 5897 5898 5899 5899 5900 5901 5902 5902 5903 5903 5904 5904 5904 5903 5903 5903 5903 5903 5902 5902 5902 5902 5902 5902 5902 5902 5901 5900 5900 5900 5900 5900 5900 5900 5900 5900 5900 5899 5899 5900 5900 5899 5899 5899 5898 5899 5900 5901 5902 5902 5902 5902 5902 5903 5903 5904 5905 5906 5907 5908 5909 5910 5911 5912 5913 5914 5915 5916 5916 5918 5920 5921 5921 5922 5922 5922 5922 5923 5924 5925 5926 5926 5927 5927 5929 5930 5930 5930 5930 5931
5895 5895 5896 5897 5898 5898 5897 5898 5899 5900 5900 5900 5901 5901 5902 5903 5903 5904 5904 5904 5903 5903 5903 5903 5903 5903 5902 5902 5902 5902 5902 5903 5903 5902 5901 5900 5900 5900 5900 5900 5900 5900 5900 5900 5899 5898 5899 5899 5899 5899 5898 5898 5898 5899 5900 5901 5901 5901 5901 5902 5902 5903 5904 5905 5906 5907 5908 5909 5910 5911 5912 5913 5914 5916 5916 5915 5917 5920 5921 5922 5922 5923 5923 5923 5924 5924 5926 5927 5927 5928 5929 5930 5931 5931 5931 5931 5932
5895 5896 5896 5897 5898 5898 5898 5899 5900 5901 5901 5901 5900 5901 5903 5903 5902 5903 5903 5904 5903 5903 5903 5903 5903 5902 5902 5902 5903 5903 5903 5903 5903 5903 5902 5900 5900 5900 5900 5900 5900 5900 5900 5900 5899 5898 5898 5898 5898 5898 5898 5898 5898 5899 5900 5901 5901 5901 5901 5901 5902 5903 5904 5904 5906 5907 5908 5908 5909 5911 5912 5913 5914 5915 5915 5915 5918 5920 5921 5922 5923 5923 5924 5924 5924 5925 5927 5928 5929 5929 5930 5931 5932 5932 5933 5933 5933
5895 5896 5897 5897 5898 5899 5898 5899 5900 5902 5902 5901 5901 5902 5903 5902 5902 5903 5903 5903 5903 5903 5903 5902 5903 5902 5902 5902 5903 5903 5903 5903 5903 5903 5903 5901 5900 5900 5900 5900 5900 5900 5900 5900 5899 5898 5897 5897 5897 5897 5897 5897 5897 5898 5899 5901 5901 5901 5901 5901 5902 5903 5903 5904 5905 5906 5907 5908 5909 5910 5911 5912 5913 5913 5914 5916 5919 5921 5922 5922 5923 5924 5924 5925 5925 5926 5927 5928 5930 5931 5931 5932 5933 5934 5934 5934 5934
5894 5896 5896 5896 5898 5899 5899 5899 5900 5901 5901 5900 5901 5903 5904 5903 5902 5902 5902 5903 5902 5903 5902 5902 5902 5902 5902 5902 5902 5903 5903 5903 5903 5904 5903 5902 5901 5900 5900 5899 5900 5900 5900 5899 5899 5899 5897 5897 5897 5896 5896 5896 5896 5897 5898 5899 5900 5900 5900 5901 5902 5902 5903 5905 5905 5905 5906 5907 5908 5909 5910 5911 5911 5912 5914 5917 5920 5921 5922 5922 5924 5925 5925 5926 5926 5926 5927 5929 5930 5932 5933 5933 5934 5934 5934 5935 5935
5894 5895 5895 5896 5899 5900 5899 5899 5899 5900 5900 5900 5901 5903 5903 5903 5902 5902 5902 5902 5902 5902 5902 5902 5902 5902 5902 5902 5902 5902 5902 5902 5903 5903 5903 5903 5902 5901 5900 5900 5900 5900 5900 5900 5900 5899 5899 5898 5897 5897 5896 5895 5896 5896 5897 5898 5899 5900 5900 5901 5902 5902 5903 5904 5904 5905 5906 5907 5908 5908 5909 5910 5911 5913 5916 5918 5920 5921 5922 5923 5924 5926 5926 5927 5927 5927 5927 5928 5930 5932 5933 5934 5934 5933 5934 5936 5936
5893 5894 5895 5895 5898 5900 5900 5900 5900 5899 5900 5901 5901 5902 5902 5902 5902 5903 5902 5902 5901 5902 5902 5902 5902 5902 5902 5902 5902 5902 5902 5902 5903 5903 5903 5903 5902 5901 5901 5900 5900 5900 5900 5901 5900 5899 5899 5898 5898 5897 5897 5896 5896 5896 5897 5897 5898 5899 5900 5900 5901 5902 5903 5903 5904 5905 5906 5907 5908 5908 5909 5911 5912 5914 5916 5919 5920 5921 5922 5924 5925 5927 5927 5927 5927 5927 5927 5928 5930 5932 5934 5935 5934 5934 5934 5935 5936
5891 5892 5894 5894 5895 5898 5901 5901 5900 5899 5900 5901 5902 5901 5901 5901 5902 5902 5902 5902 5901 5901 5901 5901 5901 5902 5902 5902 5902 5902 5902 5902 5902 5902 5902 5902 5902 5902 5901 5901 5900 5900 5900 5900 5900 5899 5899 5898 5897 5897 5897 5897 5896 5896 5897 5897 5897 5898 5899 5900 5901 5902 5903 5903 5904 5905 5906 5907 5908 5909 5911 5912 5913 5915 5917 5920 5921 5922 5923 5925 5926 5927 5928 5928 5928 5928 5928 5928 5929 5931 5934 5935 5935 5935 5935 5935 5935
5891 5891 5893 5894 5894 5896 5899 5901 5901 5901 5901 5901 5901 5901 5901 5901 5901 5902 5902 5901 5900 5900 5900 5900 5900 5901 5902 5902 5902 5902 5902 5902 5902 5902 5902 5902 5902 5902 5901 5901 5901 5901 5901 5901 5900 5900 5899 5898 5897 5897 5897 5897 5897 5897 5897 5897 5897 5898 5899 5900 5901 5902 5903 5904 5904 5905 5906 5907 5908 5910 5911 5912 5914 5915 5917 5920 5922 5923 5924 5926 5927 5928 5928 5928 5928 5928 5928 5928 5929 5930 5932 5935 5936 5936 5936 5936 5936
5890 5891 5892 5893 5894 5894 5896 5898 5899 5900 5901 5900 5900 5900 5900 5900 5900 5901 5901 5900 5900 5900 5900 5900 5900 5901 5902 5902 5902 5902 5901 5902 5902 5902 5902 5902 5901 5901 5901 5901 5901 5900 5901 5901 5900 5900 5899 5898 5897 5897 5897 5897 5897 5897 5897 5897 5898 5898 5899 5900 5901 5902 5903 5904 5905 5906 5906 5908 5909 5911 5913 5913 5914 5915 5918 5921 5923 5924 5925 5927 5928 5929 5929 5929 5929 5929 5929 5928 5929 5930 5931 5933 5935 5936 5937 5937 5937
5891 5891 5891 5892 5894 5894 5894 5895 5897 5898 5899 5899 5899 5899 5899 5900 5900 5900 5901 5900 5900 5900 5900 5900 5900 5900 5901 5901 5901 5901 5901 5901 5902 5902 5902 5902 5901 5901 5900 5901 5900 5900 5901 5901 5900 5900 5899 5898 5897 5896 5897 5897 5897 5897 5898 5898 5899 5899 5900 5900 5902 5903 5904 5904 5905 5906 5907 5909 5910 5912 5914 5914 5915 5916 5919 5922 5924 5925 5926 5928 5928 5929 5929 5930 5930 5930 5930 5929 5929 5929 5930 5931 5933 5934 5936 5937 5938
5891 5891 5891 5891 5892 5893 5894 5894 5895 5896 5898 5898 5899 5899 5899 5899 5899 5899 5899 5900 5900 5900 5900 5899 5899 5899 5900 5901 5901 5901 5901 5901 5901 5902 5902 5902 5902 5901 5900 5900 5901 5900 5901 5901 5901 5900 5899 5898 5897 5897 5897 5897 5897 5897 5898 5899 5899 5900 5901 5901 5902 5903 5904 5905 5906 5907 5908 5910 5912 5913 5914 5915 5916 5918 5921 5923 5925 5926 5927 5928 5929 5930 5930 5930 5931 5931 5930 5930 5929 5929 5930 5931 5931 5933 5935 5936 5938
5890 5890 5890 5890 5892 5893 5894 5894 5894 5895 5896 5897 5898 5898 5898 5898 5898 5899 5898 5898 5899 5899 5899 5898 5898 5898 5899 5900 5900 5901 5901 5901 5901 5902 5902 5902 5902 5901 5901 5901 5901 5901 5901 5901 5901 5900 5900 5899 5898 5898 5898 5898 5897 5898 5898 5899 5900 5901 5902 5902 5903 5904 5905 5905 5906 5907 5909 5911 5912 5914 5915 5917 5918 5919 5922 5924 5925 5926 5927 5928 5929 5930 5930 5931 5931 5932 5931 5931 5930 5930 5930 5931 5932 5933 5934 5936 5937
5888 5889 5889 5889 5891 5892 5893 5893 5893 5894 5895 5896 5897 5897 5897 5897 5897 5898 5898 5897 5897 5898 5898 5898 5898 5898 5898 5899 5899 5900 5901 5901 5901 5902 5902 5902 5902 5902 5901 5901 5901 5901 5901 5901 5901 5901 5900 5900 5899 5899 5899 5899 5899 5899 5899 5900 5901 5902 5903 5903 5903 5904 5905 5906 5907 5908 5910 5912 5913 5915 5917 5918 5919 5921 5924 5925 5926 5927 5927 5928 5929 5930 5931 5931 5932 5932 5932 5932 5931 5931 5931 5932 5933 5934 5935 5936 5936
5887 5889 5889 5888 5889 5890 5892 5892 5891 5892 5893 5894 5895 5896 5896 5896 5896 5897 5897 5897 5896 5897 5897 5897 5897 5897 5897 5898 5898 5899 5900 5900 5901 5902 5902 5902 5902 5902 5901 5902 5901 5901 5901 5901 5902 5901 5901 5901 5900 5900 5899 5900 5900 5900 5900 5901 5902 5902 5903 5904 5904 5905 5906 5907 5908 5910 5912 5913 5915 5916 5918 5919 5921 5923 5925 5926 5927 5927 5928 5928 5929 5930 5931 5932 5932 5933 5932 5933 5932 5932 5932 5933 5934 5935 5936 5936 5936
5884 5887 5888 5887 5887 5888 5890 5891 5891 5891 5892 5893 5894 5895 5896 5896 5896 5896 5895 5896 5896 5896 5896 5896 5896 5896 5896 5897 5897 5898 5899 5900 5901 5902 5902 5902 5902 5902 5902 5902 5902 5901 5901 5902 5902 5902 5901 5901 5902 5901 5901 5901 5901 5902 5901 5902 5902 5903 5904 5905 5906 5907 5908 5909 5910 5911 5913 5914 5915 5917 5919 5921 5923 5925 5926 5926 5927 5927 5928 5929 5929 5930 5931 5932 5932 5933 5933 5933 5933 5933 5933 5934 5934 5935 5936 5936 5936
5881 5884 5885 5885 5885 5886 5889 5891 5891 5890 5890 5891 5892 5893 5895 5895 5895 5895 5894 5894 5895 5895 5895 5895 5895 5895 5895 5895 5896 5897 5898 5899 5900 5901 5902 5902 5902 5902 5902 5902 5902 5902 5902 5903 5903 5903 5902 5902 5903 5903 5903 5902 5903 5903 5903 5903 5904 5905 5906 5907 5908 5909 5910 5911 5912 5913 5914 5916 5917 5919 5921 5923 5925 5926 5926 5926 5926 5927 5928 5929 5930 5930 5931 5932 5932 5933 5933 5933 5933 5933 5934 5934 5934 5935 5936 5936 5936
5879 5882 5883 5883 5883 5884 5888 5890 5890 5888 5888 5889 5890 5892 5894 5894 5894 5893 5893 5893 5893 5894 5894 5894 5894 5894 5894 5895 5895 5897 5898 5898 5900 5901 5902 5902 5902 5902 5902 5902 5903 5903 5902 5903 5904 5904 5903 5904 5904 5904 5904 5904 5905 5905 5905 5905 5906 5906 5907 5908 5910 5911 5912 5913 5914 5915 5917 5918 5920 5921 5923 5924 5925 5926 5926 5926 5927 5927 5928 5929 5930 5930 5931 5931 5932 5932 5933 5933 5933 5934 5934 5934 5934 5935 5935 5936 5935
5879 5880 5882 5883 5883 5883 5886 5888 5887 5886 5885 5886 5888 5891 5892 5892 5892 5892 5892 5892 5892 5892 5892 5892 5893 5893 5893 5894 5895 5896 5897 5898 5899 5901 5901 5902 5902 5902 5902 5902 5903 5903 5903 5903 5904 5905 5904 5904 5905 5905 5906 5906 5906 5907 5908 5908 5908 5909 5909 5910 5911 5913 5914 5915 5916 5917 5919 5921 5922 5923 5924 5924 5925 5925 5926 5926 5927 5928 5928 5929 5930 5930 5931 5931 5932 5932 5932 5933 5933 5933 5934 5934 5934 5934 5935 5935 5935
5878 5879 5881 5882 5882 5882 5884 5885 5885 5884 5883 5884 5886 5888 5890 5890 5891 5891 5891 5891 5891 5891 5891 5891 5891 5892 5892 5893 5894 5895 5896 5897 5898 5900 5901 5901 5902 5902 5902 5902 5903 5903 5904 5904 5904 5905 5905 5905 5906 5906 5907 5907 5908 5909 5910 5910 5910 5911 5911 5912 5913 5914 5915 5916 5917 5919 5920 5922 5922 5923 5923 5924 5925 5925 5926 5926 5927 5928 5929 5929 5930 5930 5931 5931 5932 5932 5933 5933 5933 5933 5933 5933 5934 5934 5935 5935 5935
5878 5878 5879 5881 5881 5881 5882 5882 5883 5883 5883 5883 5884 5886 5888 5889 5889 5889 5890 5890 5890 5890 5889 5890 5890 5890 5891 5892 5893 5894 5895 5896 5897 5899 5900 5901 5901 5902 5902 5902 5903 5904 5904 5904 5905 5906 5906 5906 5906 5907 5907 5908 5909 5909 5910 5911 5911 5912 5913 5913 5914 5915 5915 5916 5918 5920 5921 5921 5922 5922 5923 5924 5925 5925 5926 5927 5927 5928 5929 5929 5930 5930 5931 5932 5932 5933 5933 5933 5933 5933 5934 5934 5934 5934 5935 5935 5935
5877 5878 5879 5879 5879 5880 5880 5880 5881 5882 5882 5882 5883 5885 5886 5887 5887 5887 5888 5889 5889 5889 5888 5888 5889 5889 5889 5891 5892 5893 5894 5895 5896 5898 5899 5900 5901 5902 5902 5902 5902 5903 5904 5905 5905 5906 5907 5908 5908 5908 5908 5909 5910 5910 5911 5912 5912 5913 5913 5914 5915 5915 5916 5918 5919 5920 5921 5921 5922 5923 5924 5924 5925 5926 5926 5927 5928 5928 5929 5930 5931 5931 5931 5932 5933 5933 5933 5933 5933 5934 5934 5934 5934 5934 5934 5934 5935
5875 5876 5875 5875 5877 5878 5878 5878 5878 5879 5880 5880 5882 5882 5883 5884 5884 5886 5887 5888 5888 5888 5888 5888 5888 5888 5888 5890 5891 5892 5893 5894 5895 5897 5898 5899 5900 5901 5901 5901 5902 5903 5904 5905 5905 5906 5907 5908 5909 5909 5909 5910 5911 5912 5912 5913 5914 5915 5915 5915 5916 5917 5918 5919 5920 5920 5921 5922 5923 5923 5924 5925 5926 5926 5927 5927 5928 5929 5930 5930 5931 5931 5932 5932 5933 5933 5933 5933 5933 5934 5934 5934 5934 5934 5934 5934 5935
5873 5872 5870 5871 5874 5875 5874 5874 5875 5877 5878 5878 5879 5879 5880 5881 5882 5885 5886 5886 5887 5887 5887 5887 5887 5887 5888 5889 5890 5891 5892 5893 5894 5895 5897 5898 5899 5900 5901 5901 5902 5902 5904 5905 5906 5906 5907 5909 5909 5910 5910 5910 5912 5913 5914 5915 5916 5916 5917 5917 5918 5918 5919 5920 5920 5921 5922 5923 5924 5924 5925 5926 5926 5927 5927 5928 5929 5929 5930 5931 5931 5932 5932 5933 5933 5933 5933 5934 5934 5934 5934 5934 5934 5934 5934 5934 5935
5870 5868 5867 5869 5873 5873 5873 5874 5875 5876 5876 5877 5877 5877 5877 5878 5880 5883 5884 5884 5885 5886 5886 5886 5886 5886 5887 5887 5888 5889 5890 5892 5893 5894 5896 5897 5898 5899 5900 5901 5901 5902 5903 5905 5906 5906 5907 5908 5910 5910 5911 5911 5912 5913 5914 5915 5916 5917 5918 5918 5919 5919 5920 5920 5921 5922 5923 5924 5925 5925 5926 5926 5926 5927 5928 5928 5929 5930 5930 5931 5931 5932 5932 5933 5933 5933 5933 5933 5934 5934 5934 5934 5934 5934 5934 5934 5935
5869 5868 5867 5869 5872 5873 5873 5874 5874 5874 5874 5876 5877 5876 5875 5875 5877 5880 5881 5883 5884 5884 5885 5885 5885 5885 5886 5886 5887 5888 5889 5891 5892 5893 5894 5896 5897 5898 5899 5900 5901 5902 5902 5904 5905 5906 5907 5908 5909 5911 5912 5912 5913 5914 5914 5915 5916 5917 5918 5919 5919 5920 5921 5921 5922 5923 5924 5924 5925 5926 5926 5927 5927 5927 5928 5928 5929 5930 5930 5931 5931 5932 5932 5933 5933 5933 5933 5933 5933 5934 5933 5934 5934 5934 5934 5935 5935
5868 5868 5868 5869 5871 5871 5871 5872 5872 5873 5874 5875 5876 5875 5875 5873 5874 5877 5879 5881 5882 5883 5883 5884 5884 5885 5885 5886 5886 5887 5888 5890 5891 5892 5893 5894 5895 5897 5898 5899 5900 5901 5902 5903 5905 5906 5907 5908 5909 5910 5912 5913 5913 5914 5915 5916 5916 5917 5918 5919 5920 5921 5921 5922 5923 5923 5924 5925 5926 5926 5927 5927 5927 5928 5928 5929 5929 5930 5930 5931 5931 5932 5933 5933 5933 5933 5933 5933 5933 5933 5934 5934 5934 5934 5935 5935 5935
5866 5867 5867 5868 5868 5868 5869 5870 5870 5871 5873 5874 5874 5874 5873 5871 5871 5874 5876 5878 5879 5881 5882 5882 5883 5884 5885 5885 5886 5886 5887 5888 5890 5890 5891 5893 5894 5895 5897 5898 5899 5901 5902 5902 5904 5905 5907 5908 5908 5910 5911 5913 5914 5914 5915 5916 5917 5918 5919 5920 5920 5921 5922 5923 5923 5924 5925 5925 5926 5927 5927 5928 5928 5928 5929 5929 5930 5930 5931 5931 5931 5932 5933 5933 5933 5933 5933 5933 5933 5933 5934 5934 5934 5934 5934 5934 5934
5865 5865 5864 5865 5866 5867 5868 5869 5870 5871 5872 5873 5873 5871 5870 5870 5870 5872 5873 5875 5877 5879 5880 5880 5881 5882 5883 5884 5885 5885 5885 5886 5887 5888 5890 5891 5893 5894 5895 5897 5898 5899 5901 5902 5903 5904 5906 5907 5908 5909 5911 5912 5914 5915 5915 5916 5917 5918 5919 5920 5921 5922 5922 5923 5924 5924 5925 5926 5926 5927 5928 5928 5929 5929 5929 5930 5930 5930 5931 5931 5932 5932 5933 5934 5934 5934 5934 5934 5933 5933 5934 5934 5934 5934 5934 5934 5934
5863 5863 5863 5864 5865 5865 5866 5867 5867 5868 5868 5869 5869 5868 5868 5868 5868 5869 5871 5873 5875 5876 5877 5878 5879 5879 5880 5881 5882 5884 5884 5884 5885 5886 5887 5889 5891 5892 5893 5895 5896 5898 5900 5901 5902 5903 5905 5906 5908 5909 5910 5911 5913 5914 5915 5916 5917 5918 5919 5920 5921 5922 5923 5923 5924 5925 5925 5926 5927 5928 5928 5929 5929 5929 5930 5930 5930 5931 5931 5932 5932 5933 5933 5934 5934 5934 5934 5934 5934 5934 5934 5934 5934 5934 5934 5934 5934
5862 5862 5863 5864 5863 5863 5864 5864 5864 5865 5864 5865 5867 5867 5867 5867 5867 5867 5869 5871 5872 5873 5874 5876 5877 5878 5878 5878 5880 5881 5882 5882 5883 5884 5885 5887 5889 5890 5891 5893 5894 5896 5898 5900 5901 5902 5903 5905 5907 5908 5909 5910 5912 5913 5915 5916 5917 5918 5919 5920 5921 5922 5923 5924 5924 5925 5926 5927 5927 5928 5928 5929 5930 5930 5930 5931 5931 5931 5931 5932 5932 5933 5933 5934 5934 5934 5934 5934 5934 5934 5934 5935 5935 5935 5935 5935 5934
5861 5861 5862 5861 5860 5861 5862 5863 5863 5862 5863 5865 5865 5865 5865 5866 5866 5866 5868 5869 5870 5871 5871 5873 5874 5876 5876 5877 5878 5879 5880 5880 5880 5881 5883 5885 5887 5888 5889 5891 5892 5894 5896 5898 5900 5901 5901 5903 5905 5907 5908 5909 5911 5912 5914 5915 5917 5918 5919 5920 5921 5922 5923 5924 5925 5925 5926 5927 5927 5928 5928 5929 5930 5930 5931 5931 5931 5931 5932 5932 5932 5933 5933 5934 5934 5934 5934 5935 5935 5935 5935 5935 5935 5935 5935 5935 5935
5861 5860 5859 5859 5859 5859 5861 5862 5862 5861 5863 5865 5862 5861 5863 5864 5863 5864 5866 5867 5868 5868 5869 5870 5871 5872 5873 5874 5875 5876 5877 5878 5878 5879 5880 5882 5884 5886 5887 5889 5890 5892 5894 5896 5898 5899 5900 5901 5903 5905 5907 5908 5909 5911 5913 5914 5916 5917 5919 5920 5921 5922 5923 5924 5925 5925 5926 5926 5927 5927 5928 5928 5929 5930 5931 5931 5932 5932 5932 5933 5933 5933 5933 5934 5934 5934 5934 5935 5935 5935 5935 5935 5936 5936 5936 5935 5935
5860 5859 5859 5859 5858 5858 5859 5860 5860 5860 5863 5864 5861 5859 5860 5861 5861 5862 5863 5864 5865 5866 5867 5868 5869 5870 5871 5871 5872 5873 5874 5876 5876 5877 5877 5878 5881 5883 5885 5887 5889 5890 5892 5894 5896 5898 5898 5899 5901 5903 5905 5907 5908 5909 5911 5913 5915 5916 5918 5919 5921 5922 5923 5923 5924 5925 5925 5926 5926 5927 5927 5928 5928 5929 5930 5931 5931 5932 5933 5933 5933 5933 5933 5933 5934 5934 5934 5934 5935 5935 5935 5935 5935 5936 5936 5935 5935
5859 5858 5857 5856 5856 5857 5858 5859 5859 5860 5861 5862 5860 5857 5857 5858 5859 5860 5860 5861 5862 5863 5864 5865 5866 5867 5868 5869 5870 5870 5871 5873 5874 5875 5875 5876 5879 5881 5883 5885 5887 5888 5890 5892 5894 5896 5897 5898 5900 5901 5903 5905 5907 5908 5910 5911 5913 5914 5916 5918 5919 5921 5922 5923 5924 5924 5925 5925 5926 5926 5926 5927 5927 5928 5929 5930 5930 5931 5932 5933 5933 5933 5933 5933 5933 5933 5933 5934 5934 5934 5934 5934 5934 5935 5935 5935 5934
5857 5857 5855 5853 5854 5856 5857 5857 5857 5858 5859 5860 5858 5855 5854 5856 5856 5857 5858 5858 5860 5861 5861 5862 5862 5863 5865 5866 5868 5869 5869 5870 5872 5873 5874 5874 5876 5878 5880 5882 5885 5886 5888 5890 5892 5894 5896 5897 5898 5900 5901 5903 5905 5907 5908 5909 5911 5912 5914 5916 5918 5919 5921 5922 5923 5923 5924 5925 5925 5925 5926 5926 5927 5927 5928 5928 5929 5930 5931 5931 5932 5932 5932 5933 5933 5933 5933 5933 5933 5933 5933 5933 5933 5933 5934 5934 5933
5856 5856 5854 5853 5854 5854 5855 5854 5855 5855 5856 5857 5856 5854 5854 5855 5855 5856 5857 5856 5857 5858 5858 5859 5860 5861 5862 5863 5865 5866 5867 5868 5870 5871 5872 5872 5874 5876 5877 5879 5881 5884 5886 5888 5890 5892 5894 5895 5897 5898 5900 5902 5903 5905 5906 5907 5908 5910 5912 5914 5916 5917 5919 5921 5922 5922 5923 5924 5924 5925 5925 5925 5926 5927 5927 5928 5928 5928 5929 5930 5930 5931 5931 5931 5932 5932 5932 5932 5932 5932 5932 5932 5932 5932 5932 5932 5933
5854 5853 5853 5853 5853 5852 5852 5852 5852 5853 5853 5854 5854 5853 5853 5854 5853 5853 5855 5855 5855 5854 5855 5857 5858 5859 5860 5861 5862 5863 5865 5866 5868 5869 5870 5870 5871 5872 5874 5876 5879 5881 5884 5886 5889 5890 5891 5893 5895 5897 5899 5900 5902 5903 5904 5905 5906 5908 5910 5912 5914 5915 5917 5919 5920 5921 5922 5922 5923 5923 5924 5924 5925 5925 5926 5927 5927 5927 5928 5928 5929 5929 5930 5930 5930 5930 5930 5931 5931 5931 5931 5931 5931 5931 5931 5932 5932